• în Republica Moldova
  • Lista ţărilor
  • Pe 7 zile
  • Temperatura apei
  • Hartă satelitară
  • Meteo pe hartă
  • Widget-uri
  • user-avatar
    Intrare

    Meteo pe oră la Yevlakh

    Astăzi, 25 Iunie, Duminică

    Timp Temperatura Precipitaţii Vânt Presiune Umiditate
    00:00 +24°C° 0 mm 2 m/s 757 mmHg 55%
    01:00 +23°C° 0 mm 1 m/s 757 mmHg 58%
    02:00 +22°C° 0 mm 1 m/s 757 mmHg 61%
    03:00 +22°C° 0 mm 1 m/s 757 mmHg 67%
    04:00 +23°C° 0 mm 1 m/s 757 mmHg 65%
    05:00 +25°C° 0 mm 1 m/s 757 mmHg 62%
    06:00 +26°C° 0 mm 1 m/s 757 mmHg 60%
    07:00 +28°C° 0 mm 2 m/s 757 mmHg 50%
    08:00 +30°C° 0 mm 3 m/s 757 mmHg 40%
    09:00 +33°C° 0 mm 4 m/s 757 mmHg 30%
    10:00 +34°C° 0 mm 4 m/s 757 mmHg 27%
    11:00 +35°C° 0 mm 4 m/s 757 mmHg 25%
    12:00 +36°C° 0 mm 4 m/s 757 mmHg 22%
    13:00 +37°C° 0 mm 4 m/s 756 mmHg 21%
    14:00 +37°C° 0 mm 4 m/s 756 mmHg 20%
    15:00 +37°C° 0 mm 3 m/s 756 mmHg 20%
    16:00 +37°C° 0 mm 3 m/s 756 mmHg 22%
    17:00 +36°C° 0 mm 2 m/s 757 mmHg 25%
    18:00 +34°C° 0 mm 1 m/s 757 mmHg 27%
    19:00 +32°C° 0,1 mm 2 m/s 758 mmHg 32%
    20:00 +30°C° 0,1 mm 3 m/s 758 mmHg 37%
    21:00 +27°C° 0,1 mm 3 m/s 759 mmHg 42%
    22:00 +26°C° 0,1 mm 3 m/s 759 mmHg 50%
    23:00 +25°C° 0,1 mm 2 m/s 760 mmHg 58%

    Mâine, 26 Iunie, Luni

    Timp Temperatura Precipitaţii Vânt Presiune Umiditate
    00:00 +25°C° 0,1 mm 1 m/s 760 mmHg 65%
    01:00 +24°C° 0 mm 1 m/s 760 mmHg 68%
    02:00 +24°C° 0 mm 1 m/s 761 mmHg 70%
    03:00 +23°C° 0 mm 1 m/s 761 mmHg 73%
    04:00 +24°C° 0 mm 1 m/s 761 mmHg 69%
    05:00 +25°C° 0 mm 1 m/s 761 mmHg 65%
    06:00 +27°C° 0 mm 1 m/s 762 mmHg 61%
    07:00 +28°C° 0 mm 1 m/s 762 mmHg 55%
    08:00 +29°C° 0 mm 2 m/s 762 mmHg 50%
    09:00 +31°C° 0 mm 3 m/s 762 mmHg 44%
    10:00 +33°C° 0 mm 3 m/s 762 mmHg 41%
    11:00 +34°C° 0 mm 4 m/s 761 mmHg 38%
    12:00 +35°C° 0 mm 4 m/s 761 mmHg 35%
    13:00 +35°C° 0 mm 4 m/s 761 mmHg 34%
    14:00 +36°C° 0 mm 4 m/s 760 mmHg 33%
    15:00 +36°C° 0 mm 4 m/s 760 mmHg 32%
    16:00 +36°C° 0 mm 5 m/s 760 mmHg 34%
    17:00 +35°C° 0 mm 5 m/s 760 mmHg 36%
    18:00 +34°C° 0 mm 5 m/s 760 mmHg 38%
    19:00 +32°C° 0 mm 5 m/s 761 mmHg 43%
    20:00 +29°C° 0 mm 5 m/s 761 mmHg 48%
    21:00 +27°C° 0 mm 4 m/s 762 mmHg 53%
    22:00 +26°C° 0 mm 4 m/s 762 mmHg 57%
    23:00 +26°C° 0 mm 3 m/s 762 mmHg 61%

    Poimâine, 27 Iunie, Marţi

    Timp Temperatura Precipitaţii Vânt Presiune Umiditate
    00:00 +25°C° 0 mm 2 m/s 762 mmHg 65%
    01:00 +24°C° 0 mm 2 m/s 762 mmHg 68%
    02:00 +23°C° 0 mm 1 m/s 762 mmHg 70%
    03:00 +23°C° 0 mm 1 m/s 761 mmHg 73%
    04:00 +24°C° 0 mm 1 m/s 761 mmHg 69%
    05:00 +23°C° 0 mm 0 m/s 761 mmHg 66%
    06:00 +24°C° 0 mm 0 m/s 761 mmHg 63%
    07:00 +25°C° 0 mm 0 m/s 761 mmHg 57%
    08:00 +29°C° 0 mm 1 m/s 760 mmHg 51%
    09:00 +30°C° 0 mm 1 m/s 760 mmHg 45%
    10:00 +32°C° 0 mm 1 m/s 759 mmHg 41%
    11:00 +33°C° 0 mm 1 m/s 759 mmHg 37%
    12:00 +34°C° 0 mm 1 m/s 758 mmHg 33%
    13:00 +36°C° 0 mm 2 m/s 758 mmHg 32%
    14:00 +37°C° 0 mm 2 m/s 757 mmHg 30%
    15:00 +37°C° 0 mm 2 m/s 757 mmHg 28%
    16:00 +37°C° 0 mm 2 m/s 757 mmHg 30%
    17:00 +37°C° 0 mm 2 m/s 757 mmHg 31%
    18:00 +37°C° 0 mm 2 m/s 757 mmHg 32%
    19:00 +34°C° 0 mm 2 m/s 757 mmHg 36%
    20:00 +31°C° 0 mm 3 m/s 758 mmHg 41%
    21:00 +29°C° 0 mm 3 m/s 758 mmHg 45%
    22:00 +28°C° 0 mm 3 m/s 758 mmHg 49%
    23:00 +27°C° 0 mm 2 m/s 758 mmHg 52%

    28 Iunie, Miercuri

    Timp Temperatura Precipitaţii Vânt Presiune Umiditate
    00:00 +26°C° 0 mm 2 m/s 758 mmHg 55%
    01:00 +25°C° 0 mm 1 m/s 758 mmHg 58%
    02:00 +25°C° 0 mm 1 m/s 758 mmHg 61%
    03:00 +22°C° 0 mm 0 m/s 758 mmHg 63%
    04:00 +23°C° 0 mm 0 m/s 758 mmHg 60%
    05:00 +24°C° 0 mm 0 m/s 758 mmHg 57%
    06:00 +26°C° 0 mm 0 m/s 758 mmHg 54%
    07:00 +29°C° 0 mm 1 m/s 758 mmHg 49%
    08:00 +31°C° 0 mm 1 m/s 758 mmHg 43%
    09:00 +34°C° 0 mm 2 m/s 757 mmHg 37%
    10:00 +35°C° 0 mm 2 m/s 757 mmHg 34%
    11:00 +36°C° 0 mm 2 m/s 756 mmHg 31%
    12:00 +38°C° 0 mm 2 m/s 756 mmHg 28%
    13:00 +39°C° 0 mm 3 m/s 755 mmHg 26%
    14:00 +39°C° 0 mm 3 m/s 755 mmHg 25%
    15:00 +40°C° 0 mm 3 m/s 754 mmHg 24%
    16:00 +40°C° 0 mm 3 m/s 755 mmHg 25%
    17:00 +39°C° 0 mm 3 m/s 755 mmHg 26%
    18:00 +39°C° 0 mm 2 m/s 755 mmHg 28%
    19:00 +36°C° 0 mm 3 m/s 755 mmHg 31%
    20:00 +34°C° 0 mm 3 m/s 756 mmHg 35%
    21:00 +30°C° 0 mm 3 m/s 756 mmHg 38%
    22:00 +29°C° 0 mm 2 m/s 756 mmHg 40%
    23:00 +28°C° 0 mm 2 m/s 756 mmHg 43%

    29 Iunie, Joi

    Timp Temperatura Precipitaţii Vânt Presiune Umiditate
    00:00 +27°C° 0 mm 1 m/s 757 mmHg 45%
    01:00 +27°C° 0 mm 1 m/s 757 mmHg 47%
    02:00 +26°C° 0 mm 1 m/s 756 mmHg 50%
    03:00 +23°C° 0 mm 0 m/s 756 mmHg 52%
    04:00 +27°C° 0 mm 1 m/s 757 mmHg 48%
    05:00 +28°C° 0 mm 1 m/s 757 mmHg 45%
    06:00 +29°C° 0 mm 1 m/s 757 mmHg 42%
    07:00 +31°C° 0 mm 1 m/s 757 mmHg 36%
    08:00 +33°C° 0 mm 1 m/s 757 mmHg 31%
    09:00 +35°C° 0 mm 1 m/s 757 mmHg 25%
    10:00 +37°C° 0 mm 2 m/s 757 mmHg 23%
    11:00 +38°C° 0 mm 2 m/s 757 mmHg 21%
    12:00 +39°C° 0 mm 2 m/s 756 mmHg 19%
    13:00 +40°C° 0 mm 2 m/s 756 mmHg 19%
    14:00 +40°C° 0 mm 3 m/s 756 mmHg 18%
    15:00 +42°C° 0 mm 3 m/s 755 mmHg 18%
    16:00 +40°C° 0 mm 3 m/s 756 mmHg 19%
    17:00 +40°C° 0 mm 3 m/s 756 mmHg 20%
    18:00 +40°C° 0 mm 4 m/s 756 mmHg 21%
    19:00 +37°C° 0 mm 4 m/s 756 mmHg 23%
    20:00 +34°C° 0 mm 4 m/s 757 mmHg 25%
    21:00 +32°C° 0 mm 4 m/s 757 mmHg 27%
    22:00 +30°C° 0 mm 3 m/s 757 mmHg 28%
    23:00 +29°C° 0 mm 3 m/s 757 mmHg 30%

    30 Iunie, Vineri

    Timp Temperatura Precipitaţii Vânt Presiune Umiditate
    00:00 +28°C° 0 mm 2 m/s 758 mmHg 31%
    01:00 +28°C° 0 mm 2 m/s 758 mmHg 33%
    02:00 +27°C° 0 mm 2 m/s 758 mmHg 35%
    03:00 +26°C° 0 mm 1 m/s 758 mmHg 37%
    04:00 +28°C° 0 mm 1 m/s 758 mmHg 36%
    05:00 +29°C° 0 mm 1 m/s 758 mmHg 36%
    06:00 +30°C° 0 mm 1 m/s 758 mmHg 36%
    07:00 +32°C° 0 mm 1 m/s 758 mmHg 31%
    08:00 +33°C° 0 mm 1 m/s 758 mmHg 26%
    09:00 +35°C° 0 mm 1 m/s 758 mmHg 21%
    10:00 +37°C° 0 mm 2 m/s 758 mmHg 20%
    11:00 +38°C° 0 mm 2 m/s 758 mmHg 19%
    12:00 +39°C° 0 mm 2 m/s 757 mmHg 18%
    13:00 +40°C° 0 mm 3 m/s 757 mmHg 18%
    14:00 +40°C° 0 mm 3 m/s 757 mmHg 18%
    15:00 +42°C° 0 mm 4 m/s 757 mmHg 18%
    16:00 +41°C° 0 mm 4 m/s 757 mmHg 19%
    17:00 +40°C° 0 mm 4 m/s 757 mmHg 21%
    18:00 +39°C° 0 mm 5 m/s 757 mmHg 22%
    19:00 +36°C° 0 mm 5 m/s 758 mmHg 25%
    20:00 +35°C° 0 mm 5 m/s 758 mmHg 28%
    21:00 +33°C° 0 mm 5 m/s 759 mmHg 31%
    22:00 +32°C° 0 mm 4 m/s 759 mmHg 33%
    23:00 +30°C° 0 mm 3 m/s 759 mmHg 35%
    Arată mai mult